Location: Bremen
(53.0758°N, 8.8072°E)
Time: 06:31:28
(UTC+01:00)

BlueWalker 3 - Visible Passes

Search period start: 07 March 2026 00:00
Search period end: 17 March 2026 00:00
Orbit: 451 x 458 km, 53.2° (Epoch: 6 March)

Date Brightness Start Highest point End Pass type
(mag) Time Alt. Az. Time Alt. Az. Time Alt. Az.
7 Mar 1.9 04:35:55 71° ESE 04:35:55 71° ESE 04:39:13 10° E visible
7 Mar 1.7 06:09:35 11° W 06:13:05 89° S 06:16:42 10° E visible
8 Mar 3.5 04:01:06 31° E 04:01:06 31° E 04:03:07 10° E visible
8 Mar 1.7 05:34:47 22° W 05:36:59 88° N 05:40:36 10° E visible
9 Mar 4.7 03:26:16 15° E 03:26:16 15° E 03:27:00 10° E visible
9 Mar 1.7 04:59:57 48° W 05:00:52 86° N 05:04:29 10° E visible
10 Mar 2.0 04:25:08 69° ENE 04:25:08 69° ENE 04:28:21 10° E visible
10 Mar 1.9 05:58:48 11° W 06:02:10 61° SSW 06:05:43 10° ESE visible
11 Mar 3.6 03:50:19 29° E 03:50:19 29° E 03:52:12 10° E visible
11 Mar 1.7 05:23:59 24° W 05:26:02 69° SSW 05:29:37 10° ESE visible
12 Mar 4.7 03:15:31 14° E 03:15:31 14° E 03:16:03 10° E visible
12 Mar 1.6 04:49:12 55° W 04:49:54 77° SSW 04:53:30 10° ESE visible
13 Mar 2.3 04:14:28 54° ESE 04:14:28 54° ESE 04:17:20 10° ESE visible
13 Mar 2.6 05:48:09 13° W 05:50:57 33° SSW 05:54:11 10° SSE visible
14 Mar 3.9 03:39:46 22° E 03:39:46 22° E 03:41:10 10° E visible
14 Mar 2.3 05:13:28 27° WSW 05:14:49 39° SSW 05:18:11 10° SE visible
15 Mar 2.1 04:38:52 45° SSW 04:38:52 45° SSW 04:42:08 10° SE visible
16 Mar 3.5 04:04:23 24° SE 04:04:23 24° SE 04:06:02 10° SE visible
16 Mar 3.6 05:38:05 13° WSW 05:39:22 16° SW 05:41:35 10° S visible
